Location: Whitetail Observatory
(30.5740°N, 97.7628°W)
Time: 06:23:12
(UTC-05:00)

ISS - Visible Passes

Search period start: 20 April 2024 00:00
Search period end: 30 April 2024 00:00
Orbit: 412 x 418 km, 51.6° (Epoch: 20 April)

Date Brightness Start Highest point End Pass type
(mag) Time Alt. Az. Time Alt. Az. Time Alt. Az.
20 Apr -1.0 04:43:24 16° E 04:43:24 16° E 04:44:38 10° ENE visible
20 Apr -2.4 06:16:18 12° W 06:18:42 25° NW 06:21:32 10° NNE visible
21 Apr -3.5 05:29:34 48° WNW 05:29:47 49° NW 05:33:01 10° NNE visible
22 Apr -1.4 04:42:42 24° NE 04:42:42 24° NE 04:44:12 10° NE visible
22 Apr -1.2 06:17:20 10° NW 06:17:56 10° NNW 06:18:32 10° NNW visible
23 Apr -1.7 05:28:35 17° NW 05:28:46 17° NW 05:31:02 10° N visible
24 Apr -1.2 04:41:29 17° N 04:41:29 17° N 04:42:35 10° NNE visible
